This demonstration page uses our WeatherBlox Daily Observations layout. Learn more.

Hourly Observations for October 17, 2020

Temp ( °F °C ) Dew Point ( °F °C ) Humidity (%) Winds ( mph kmh ) Pressure ( in mb ) Visibility ( mi km ) Precip ( " mm )
12:53 am 00:53 Mostly Clear 55 12.8 31 -0.6 40 40 NW 9 15 29.67 1005 10 16.0934 0 0
1:53 am 01:53 Clear 54 12.2 30 -1.1 40 40 NNW 12 19 29.7 1006 10 16.0934 0 0
2:53 am 02:53 Mostly Clear 50 10 31 -0.6 48 48 N 3 6 29.75 1007 10 16.0934 0 0
3:53 am 03:53 Clear 46 7.8 28 -2.2 50 50 N 7 11 29.77 1008 10 16.0934 0 0
4:53 am 04:53 Clear 44 6.7 29 -1.7 55 55 SSW 6 9 29.77 1008 10 16.0934 0 0
5:53 am 05:53 Clear 42 5.6 29 -1.7 60 60 S 5 7 29.79 1009 10 16.0934 0 0
6:53 am 06:53 Clear 40 4.4 28 -2.2 63 63 ESE 5 7 29.81 1010 10 16.0934 0 0
7:53 am 07:53 Sunny 40 4.4 29 -1.7 65 65 Calm 29.81 1010 10 16.0934 0 0
8:53 am 08:53 Sunny 49 9.4 30 -1.1 48 48 VRB 3 6 29.79 1009 10 16.0934 0 0
9:53 am 09:53 Sunny 55 12.8 32 0 42 42 S 5 7 29.77 1008 10 16.0934 0 0
10:53 am 10:53 Mostly Cloudy 58 14.4 33 0.6 39 39 E 7 11 29.8 1009 10 16.0934 0 0
11:53 am 11:53 Mostly Sunny 62 16.7 33 0.6 34 34 NE 12 19 29.81 1009 10 16.0934 0 0
12:53 pm 12:53 Sunny 59 15 40 4.4 49 49 NNE 21 33 29.81 1010 10 16.0934 0 0
1:53 pm 13:53 Mostly Sunny 51 10.6 38 3.3 61 61 NE 20 31 29.85 1011 10 16.0934 0 0
2:20 pm 14:20 Mostly Cloudy 50 10 37 2.8 61 61 NE 17 28 29.88 1012 10 16.0934 0 0
2:53 pm 14:53 Cloudy 48 8.9 37 2.8 66 66 ENE 16 26 29.9 1013 10 16.0934 0 0
3:53 pm 15:53 Cloudy 47 8.3 35 1.7 63 63 ENE 15 24 29.92 1013 10 16.0934 0 0
4:53 pm 16:53 Cloudy 45 7.2 35 1.7 68 68 NE 18 30 29.95 1014 10 16.0934 0 0
5:53 pm 17:53 Cloudy 40 4.4 32 0 73 73 ENE 15 24 29.99 1016 10 16.0934 0 0
6:53 pm 18:53 Cloudy 37 2.8 30 -1.1 76 76 NNE 13 20 30.06 1018 10 16.0934 0 0
7:53 pm 19:53 Cloudy 36 2.2 30 -1.1 79 79 NE 8 13 30.09 1019 10 16.0934 0 0
8:06 pm 20:06 Cloudy 36 2.2 29 -1.7 76 76 ENE 12 19 30.16 1021 10 16.0934 0 0
8:53 pm 20:53 Cloudy 35 1.7 28 -2.2 76 76 ENE 10 17 30.1 1019 10 16.0934 0 0
9:00 pm 21:00 Cloudy 36 2 28 -2 75 75 NE 8 13 30.18 1022 10 16.0934 0 0
9:49 pm 21:49 Cloudy 34 1 28 -2 81 81 NE 12 19 30.24 1024 7 11.26538 0 0
9:53 pm 21:53 Cloudy with Light Rain 34 1.1 29 -1.7 82 82 NE 7 11 30.14 1021 5 8.0467 0.001 0.001
10:04 pm 22:04 Cloudy with Light Freezing Rain 33 0.6 31 -0.6 92 92 NNE 8 13 30.25 1024 3 4.82802 0.001 0.001
10:39 pm 22:39 Cloudy with Mist and Fog 33 0.6 31 -0.6 92 92 ENE 9 15 30.25 1024 5 8.0467 0.001 0.001
10:53 pm 22:53 Cloudy 33 0.6 31 -0.6 92 92 ENE 8 13 30.14 1021 8 12.87472 0.01 0.254
11:53 pm 23:53 Cloudy 32 0 30 -1.1 92 92 E 7 11 30.14 1021 10 16.0934 0 0

Powered by AerisWeather